Location: Haliburton Scout Reserve
(45.0900°N, 78.3200°W)
Time: 11:21:15
(UTC-05:00)

N. Korean satellite - Pass Details

Date: 07 December 2021
Orbit: 447 x 491 km, 97.3° (Epoch: 23 January)

Event Time Altitude Azimuth Distance (km) Brightness Sun altitude
Rises 04:41:10 0° 28° (NNE) 2,461 10.4 -30.3°
Reaches altitude 10° 04:43:40 10° 47° (NE) 1,581 9.6 -29.9°
Maximum altitude 04:46:07 19° 94° (E) 1,147 9.2 -29.5°
Drops below altitude 10° 04:48:34 10° 140° (SE) 1,572 9.6 -29.0°
Sets 04:51:01 0° 160° (SSE) 2,441 10.4 -28.6°
